TimeICT,TemperatureF,Dew PointF,Humidity,Sea Level PressureIn,VisibilityMPH,Wind Direction,Wind SpeedMPH,Gust SpeedMPH,PrecipitationIn,Events,Conditions,WindDirDegrees,DateUTC
12:00 AM,77.0,73.4,89,29.80,3.1,Calm,Calm,-,N/A,Rain,Rain,0,2013-07-22 17:00:00
12:30 AM,77.0,73.4,89,29.80,3.1,NNW,13.8,-,N/A,Rain,Rain,330,2013-07-22 17:30:00
1:00 AM,78,77,94,29.75,3,NW,5.8,,,Rain,Light Rain,310,2013-07-22 18:00:00
1:00 AM,77.0,73.4,89,29.77,3.7,NW,11.5,-,N/A,Rain,Rain,320,2013-07-22 18:00:00
1:30 AM,77.0,75.2,94,29.77,3.1,NNW,8.1,-,N/A,Rain,Rain,330,2013-07-22 18:30:00
2:00 AM,77.0,75.2,94,29.77,3.1,Calm,Calm,-,N/A,Rain,Rain,0,2013-07-22 19:00:00
2:30 AM,77.0,75.2,94,29.77,3.7,Calm,Calm,-,N/A,Rain,Rain,0,2013-07-22 19:30:00
3:00 AM,77.0,75.2,94,29.77,4.3,Calm,Calm,-,N/A,Rain,Rain,0,2013-07-22 20:00:00
3:30 AM,77.0,75.2,94,29.77,4.3,Calm,Calm,-,N/A,Rain,Rain,0,2013-07-22 20:30:00
4:00 AM,77.0,75.2,94,29.74,5.0,Calm,Calm,-,N/A,,Mostly Cloudy,0,2013-07-22 21:00:00
4:30 AM,77.0,75.2,94,29.74,5.0,Calm,Calm,-,N/A,,Mostly Cloudy,0,2013-07-22 21:30:00
5:30 AM,78.8,73.4,83,29.77,5.0,WNW,17.3,-,N/A,Rain,Light Rain,300,2013-07-22 22:30:00
6:00 AM,73.4,73.4,100,29.77,3.1,WNW,15.0,-,N/A,Rain,Rain,300,2013-07-22 23:00:00
6:30 AM,77.0,73.4,89,29.77,3.1,WNW,19.6,-,N/A,Rain,Rain,290,2013-07-22 23:30:00
7:00 AM,78,75,88,29.75,3,WNW,13.8,,,Rain,Light Rain,300,2013-07-23 00:00:00
7:00 AM,77.0,73.4,89,29.80,3.1,WNW,17.3,-,N/A,Rain,Rain,290,2013-07-23 00:00:00
7:30 AM,77.0,73.4,89,29.80,3.1,West,23.0,-,N/A,Rain,Rain,280,2013-07-23 00:30:00
9:00 AM,78.8,71.6,78,29.83,4.3,West,16.1,-,N/A,Rain,Light Rain,280,2013-07-23 02:00:00
9:30 AM,80.6,71.6,74,29.83,4.3,West,13.8,-,N/A,,Mostly Cloudy,270,2013-07-23 02:30:00
10:00 AM,82.4,73.4,74,29.80,4.3,West,13.8,-,N/A,,Mostly Cloudy,260,2013-07-23 03:00:00
10:30 AM,82.4,73.4,74,29.80,5.0,West,12.7,-,N/A,,Mostly Cloudy,270,2013-07-23 03:30:00
11:00 AM,84.2,73.4,70,29.80,5.0,West,16.1,-,N/A,,Mostly Cloudy,270,2013-07-23 04:00:00
11:30 AM,84.2,73.4,70,29.80,5.0,West,13.8,-,N/A,,Mostly Cloudy,260,2013-07-23 04:30:00
12:00 PM,84.2,73.4,70,29.80,5.0,West,13.8,-,N/A,,Mostly Cloudy,270,2013-07-23 05:00:00
12:30 PM,84.2,75.2,74,29.77,5.0,West,12.7,-,N/A,,Mostly Cloudy,270,2013-07-23 05:30:00
1:00 PM,86,77,68,29.76,6,West,10.4,,,,Partly Cloudy,280,2013-07-23 06:00:00
1:00 PM,86.0,75.2,70,29.77,5.0,West,12.7,-,N/A,,Mostly Cloudy,280,2013-07-23 06:00:00
1:30 PM,86.0,75.2,70,29.77,5.0,West,12.7,-,N/A,,Mostly Cloudy,270,2013-07-23 06:30:00
2:00 PM,84.2,75.2,74,29.77,5.0,West,13.8,-,N/A,,Mostly Cloudy,270,2013-07-23 07:00:00
2:30 PM,84.2,75.2,74,29.77,5.0,West,15.0,-,N/A,,Mostly Cloudy,270,2013-07-23 07:30:00
3:00 PM,84.2,75.2,74,29.77,5.0,West,15.0,-,N/A,,Mostly Cloudy,280,2013-07-23 08:00:00
3:30 PM,84.2,77.0,79,29.77,5.0,West,13.8,-,N/A,,Mostly Cloudy,280,2013-07-23 08:30:00
4:00 PM,84.2,75.2,74,29.77,5.0,West,12.7,-,N/A,,Mostly Cloudy,280,2013-07-23 09:00:00
4:30 PM,84.2,75.2,74,29.74,5.0,West,13.8,-,N/A,,Mostly Cloudy,280,2013-07-23 09:30:00
5:00 PM,82.4,75.2,79,29.74,5.0,WNW,11.5,-,N/A,,Mostly Cloudy,290,2013-07-23 10:00:00
5:30 PM,80.6,73.4,79,29.80,1.9,West,19.6,33.4,N/A,Rain,Heavy Rain,260,2013-07-23 10:30:00
6:00 PM,75.2,73.4,94,29.80,0.6,WNW,21.9,35.7,N/A,Rain,Heavy Rain,290,2013-07-23 11:00:00
6:30 PM,77.0,73.4,89,29.80,2.5,WNW,20.7,-,N/A,Rain,Rain,290,2013-07-23 11:30:00
7:00 PM,78,75,88,29.76,3,NW,13.8,,,Rain,Light Rain,320,2013-07-23 12:00:00
7:00 PM,77.0,73.4,89,29.80,3.1,West,17.3,-,N/A,Rain,Light Rain,280,2013-07-23 12:00:00
7:30 PM,77.0,71.6,83,29.80,4.3,West,10.4,-,N/A,,Overcast,280,2013-07-23 12:30:00
8:00 PM,77.0,71.6,83,29.80,4.3,Variable,2.3,-,N/A,,Mostly Cloudy,0,2013-07-23 13:00:00
8:30 PM,75.2,71.6,89,29.80,4.3,West,4.6,-,N/A,,Mostly Cloudy,280,2013-07-23 13:30:00
9:00 PM,77.0,71.6,83,29.80,4.3,WNW,5.8,-,N/A,,Mostly Cloudy,300,2013-07-23 14:00:00
9:30 PM,78.8,71.6,78,29.80,4.3,WNW,6.9,-,N/A,,Mostly Cloudy,300,2013-07-23 14:30:00
10:00 PM,78.8,71.6,78,29.80,4.3,West,4.6,-,N/A,,Mostly Cloudy,280,2013-07-23 15:00:00
10:30 PM,77.0,73.4,89,29.83,4.3,Calm,Calm,-,N/A,,Mostly Cloudy,0,2013-07-23 15:30:00
11:00 PM,77.0,73.4,89,29.83,-9999.0,Calm,Calm,-,N/A,,Mostly Cloudy,0,2013-07-23 16:00:00
11:30 PM,75.2,73.4,94,29.83,4.3,Calm,Calm,-,N/A,,Mostly Cloudy,0,2013-07-23 16:30:00